NVIDIA PE Ratio 2006-2018 | NVDA

Current and historical p/e ratio for NVIDIA (NVDA) from 2006 to 2018. The price to earnings ratio is calculated by taking the latest closing price and dividing it by the most recent earnings per share (EPS) number. The PE ratio is a simple way to assess whether a stock is over or under valued and is the most widely used valuation measure. NVIDIA PE ratio as of November 19, 2018 is 23.86.
NVIDIA PE Ratio Historical Data
Date Stock Price TTM Net EPS PE Ratio
2018-11-19 144.70 26.21
2018-10-31 210.83 $5.52 38.19
2018-07-31 244.86 $6.85 35.75
2018-04-30 224.76 $6.01 37.40
2018-01-31 245.50 $4.82 50.93
2017-10-31 206.41 $4.03 51.22
2017-07-31 162.06 $3.53 45.91
2017-04-30 103.90 $3.01 34.52
2017-01-31 108.63 $2.55 42.60
2016-10-31 70.69 $1.91 37.01
2016-07-31 56.62 $1.52 37.25
2016-04-30 35.14 $1.17 30.04
2016-01-31 28.87 $1.08 26.73
2015-10-31 27.86 $1.08 25.79
2015-07-31 19.51 $0.95 20.53
2015-04-30 21.60 $1.12 19.29
2015-01-31 18.62 $1.12 16.63
2014-10-31 18.86 $1.02 18.50
2014-07-31 16.82 $0.91 18.49
2014-04-30 17.67 $0.85 20.79
2014-01-31 14.95 $0.74 20.21
2013-10-31 14.39 $0.77 18.69
2013-07-31 13.61 $0.90 15.12
2013-04-30 12.91 $0.93 13.89
2013-01-31 11.43 $0.90 12.70
2012-10-31 11.09 $0.81 13.69
2012-07-31 12.54 $0.77 16.28
2012-04-30 12.04 $0.83 14.51
2012-01-31 13.68 $0.95 14.40
2011-10-31 13.71 $1.04 13.18
2011-07-31 12.81 $0.90 14.23
2011-04-30 18.52 $0.40 46.31
2011-01-31 22.15 $0.41 54.03
2010-10-31 11.13 $0.36 30.92
2010-07-31 8.51 $0.40 21.28
2010-04-30 14.55 $0.46 31.63
2010-01-31 14.25 $-0.14 0.00
2009-10-31 11.08 $-0.64 0.00
2009-07-31 11.97 $-0.72 0.00
2009-04-30 10.63 $-0.75 0.00
2009-01-31 7.36 $-0.08 0.00
2008-10-31 8.11 $0.61 13.30
2008-07-31 10.59 $0.88 12.04
2008-04-30 19.03 $1.39 13.72
2008-01-31 22.77 $1.31 17.43
2007-10-31 32.77 $1.16 28.25
2007-07-31 28.25 $0.96 29.43
2007-04-30 20.31 $0.82 24.76
2007-01-31 18.92 $0.75 25.12
2006-10-31 21.53 $0.66 32.78
Sector Industry Market Cap Revenue
Computer and Technology Semiconductor - General $100.302B $9.714B
NVIDIA Corporation is the worldwide leader in graphics processors and media communications devices. The NVIDIA? Tesla? accelerated computing platform gives modern data centers the power to accelerate both artificial intelligence and high-performance computing workloads. NVIDIA? DGX? Systems are built on the new, revolutionary NVIDIA Volta? GPU platform. Powered by NVIDIA? Tesla? GPUs and NVIDIA NVLink?, the HGX reference architecture standardizes the design of data centers accelerating AI in the cloud-from autonomous driving and personalized healthcare to superhuman voice recognition. NVIDIA GPU Cloud (NGC) is a GPU-accelerated platform that runs everywhere. Data scientists and researchers can now rapidly build, train, and deploy neural network models to address some of the most complicated AI challenges. Their researchers operate as a think tank, accelerating advances in product technologies, including AI innovations like facial animations and light transport.
Stock Name Country Market Cap PE Ratio
Intel (INTC) United States $228.442B 11.12
Texas Instruments (TXN) United States $93.989B 18.64
STMicroelectronics (STM) Switzerland $12.579B 10.09
Amtech Systems (ASYS) United States $0.079B 4.08